DAL474 KMCI-KLAX

Flight info

Callsign DAL474
Flight time N/A
Altitude 26000
Route CHIEF9 CATTS SKWYR PEEWE Q98 HAKMN ANJLL4
Aircraft A321/M-SDE3FGHIRWY/LB1

Departure

Time 2026-05-04 16:21
Airport Kansas City International Airport (KMCI)

Arrival

Time N/A
Airport Los Angeles International Airport (KLAX)
Time Latitude Longitude Altitude Speed Heading
2026-05-04 15:32 39.30068 -94.72275 1145 ft 0 kts 103°
2026-05-04 16:08 39.30075 -94.72330 1014 ft 3 kts 66°
2026-05-04 16:09 39.30049 -94.72352 1014 ft 1 kts 13°
2026-05-04 16:09 39.30045 -94.72353 1014 ft 0 kts 13°
2026-05-04 16:14 39.30049 -94.72352 1014 ft 3 kts 13°
2026-05-04 16:14 39.30120 -94.72331 1014 ft 8 kts 12°
2026-05-04 16:15 39.30272 -94.72439 1014 ft 12 kts 297°
2026-05-04 16:16 39.30439 -94.72441 1014 ft 14 kts 13°
2026-05-04 16:16 39.30760 -94.72346 1014 ft 17 kts 13°
2026-05-04 16:17 39.30966 -94.72288 1014 ft 19 kts 12°
2026-05-04 16:18 39.31373 -94.72164 1014 ft 21 kts 13°
2026-05-04 16:18 39.31570 -94.72104 1014 ft 23 kts 12°
2026-05-04 16:19 39.31998 -94.71979 1015 ft 24 kts 12°
2026-05-04 16:19 39.32201 -94.72014 1016 ft 14 kts 283°
2026-05-04 16:20 39.31552 -94.72280 1015 ft 105 kts 193°
2026-05-04 16:20 39.29555 -94.72860 1107 ft 177 kts 191°
2026-05-04 16:21 39.26787 -94.75198 2647 ft 181 kts 259°
2026-05-04 16:22 39.27190 -94.78726 3117 ft 207 kts 272°
2026-05-04 16:22 39.27400 -94.85061 4112 ft 259 kts 273°
2026-05-04 16:23 39.27636 -94.92156 6062 ft 268 kts 275°
2026-05-04 16:24 39.28052 -95.01758 8898 ft 266 kts 274°
2026-05-04 16:25 39.28267 -95.06550 10030 ft 276 kts 274°
2026-05-04 16:26 39.28765 -95.17783 10743 ft 341 kts 273°
2026-05-04 16:26 39.29148 -95.26798 12379 ft 348 kts 273°
2026-05-04 16:27 39.29404 -95.32984 13528 ft 352 kts 272°
2026-05-04 16:28 39.29676 -95.42532 14924 ft 360 kts 271°
2026-05-04 16:28 39.29751 -95.52322 16330 ft 367 kts 271°
2026-05-04 16:29 39.29881 -95.65658 18118 ft 376 kts 271°
2026-05-04 16:30 39.29999 -95.75884 19241 ft 383 kts 271°
2026-05-04 16:31 39.30068 -95.82753 19972 ft 387 kts 271°
2026-05-04 16:31 39.30161 -95.93257 21109 ft 393 kts 272°
2026-05-04 16:32 39.30245 -96.03916 22210 ft 399 kts 272°
2026-05-04 16:33 39.30294 -96.11115 22922 ft 402 kts 272°
2026-05-04 16:33 39.30135 -96.18370 23584 ft 406 kts 267°
2026-05-04 16:34 39.29656 -96.25665 24192 ft 409 kts 267°
2026-05-04 16:34 39.29417 -96.29329 24486 ft 410 kts 267°
2026-05-04 16:35 39.28701 -96.40331 25331 ft 414 kts 267°
2026-05-04 16:35 39.27962 -96.51478 26145 ft 417 kts 267°
2026-05-04 16:36 39.27709 -96.55217 26411 ft 419 kts 267°
2026-05-04 16:36 39.27195 -96.62734 26970 ft 421 kts 267°
2026-05-04 16:37 39.26680 -96.70267 27619 ft 420 kts 267°
2026-05-04 16:37 39.26423 -96.74013 27976 ft 419 kts 267°
2026-05-04 16:37 39.25904 -96.81471 28678 ft 416 kts 267°
2026-05-04 16:38 39.25384 -96.88884 29318 ft 414 kts 267°
2026-05-04 16:39 39.24600 -96.99948 30203 ft 412 kts 267°
2026-05-04 16:39 39.24070 -97.07286 30743 ft 410 kts 267°
2026-05-04 16:40 39.23548 -97.14550 31281 ft 409 kts 267°
2026-05-04 16:40 39.23016 -97.21841 31678 ft 407 kts 267°
2026-05-04 16:41 39.21686 -97.39810 31701 ft 402 kts 267°
2026-05-04 16:43 39.20324 -97.57729 31704 ft 402 kts 267°
2026-05-04 16:43 39.19502 -97.68458 31718 ft 399 kts 267°
2026-05-04 16:45 39.17845 -97.89665 31712 ft 396 kts 267°
2026-05-04 16:46 39.16443 -98.07182 31719 ft 394 kts 267°
2026-05-04 16:47 39.15301 -98.21202 31722 ft 393 kts 267°
2026-05-04 16:48 39.14156 -98.35145 31703 ft 392 kts 266°
2026-05-04 16:49 39.12991 -98.49070 31724 ft 390 kts 266°
2026-05-04 16:50 39.11814 -98.62941 31736 ft 389 kts 266°
2026-05-04 16:51 39.10921 -98.73297 31724 ft 388 kts 266°
2026-05-04 16:51 39.10323 -98.80218 31891 ft 390 kts 266°
2026-05-04 16:52 39.09714 -98.87103 32474 ft 388 kts 266°
2026-05-04 16:52 39.09407 -98.90550 32787 ft 387 kts 266°
2026-05-04 16:53 39.08803 -98.97396 33411 ft 383 kts 266°
2026-05-04 16:53 39.07900 -99.07589 33737 ft 380 kts 266°
2026-05-04 16:54 39.07599 -99.10962 33734 ft 379 kts 266°
2026-05-04 16:55 39.05775 -99.31087 33754 ft 377 kts 266°
2026-05-04 16:56 39.04231 -99.47835 33710 ft 377 kts 266°
2026-05-04 16:57 39.03297 -99.57791 33735 ft 375 kts 266°
2026-05-04 16:58 39.02044 -99.71094 33729 ft 374 kts 266°
2026-05-04 17:00 39.00138 -99.90944 33723 ft 373 kts 266°
2026-05-04 17:01 38.98531 -100.07446 33728 ft 372 kts 266°
2026-05-04 17:02 38.97226 -100.20628 33706 ft 372 kts 266°
2026-05-04 17:03 38.96234 -100.30494 33719 ft 370 kts 266°
2026-05-04 17:03 38.95246 -100.40340 33723 ft 370 kts 266°
2026-05-04 17:04 38.93915 -100.53450 33753 ft 370 kts 266°
2026-05-04 17:05 38.92574 -100.66489 33757 ft 369 kts 266°
2026-05-04 17:06 38.91544 -100.76293 33770 ft 369 kts 266°
2026-05-04 17:07 38.90745 -100.83933 33767 ft 369 kts 266°
2026-05-04 17:07 38.89834 -100.92631 33762 ft 369 kts 266°
2026-05-04 17:08 38.88799 -101.02437 33747 ft 369 kts 266°
2026-05-04 17:09 38.88109 -101.08920 33737 ft 369 kts 266°
2026-05-04 17:09 38.87405 -101.15448 33720 ft 369 kts 266°
2026-05-04 17:10 38.85752 -101.30651 33700 ft 369 kts 266°
2026-05-04 17:11 38.85039 -101.37165 33693 ft 369 kts 266°
2026-05-04 17:12 38.83967 -101.46941 33699 ft 369 kts 266°
2026-05-04 17:13 38.82151 -101.63232 33709 ft 369 kts 266°
2026-05-04 17:14 38.80686 -101.76236 33704 ft 369 kts 265°
2026-05-04 17:15 38.79580 -101.86000 33706 ft 369 kts 265°
2026-05-04 17:16 38.78085 -101.99009 33709 ft 369 kts 265°
2026-05-04 17:17 38.76580 -102.12015 33703 ft 369 kts 265°
2026-05-04 17:18 38.75062 -102.24994 33709 ft 368 kts 265°
2026-05-04 17:19 38.73539 -102.37923 33711 ft 368 kts 265°
2026-05-04 17:20 38.71989 -102.50864 33713 ft 367 kts 265°
2026-05-04 17:20 38.70826 -102.60551 33728 ft 367 kts 265°
2026-05-04 17:21 38.69264 -102.73448 33718 ft 366 kts 265°
2026-05-04 17:22 38.68474 -102.79877 33709 ft 366 kts 265°
2026-05-04 17:23 38.66892 -102.92702 33722 ft 364 kts 265°
2026-05-04 17:24 38.65711 -103.02248 33718 ft 363 kts 265°